Location: Kings Park
(40.8862°N, 73.2573°W)
Time: 10:06:03
(UTC+00:00)

Cosmos 1825 - Pass Details

Date: 29 October 2020
Orbit: 502 x 508 km, 82.5° (Epoch: 23 November)

Event Time Altitude Azimuth Distance (km) Brightness Sun altitude
Rises 23:30:49 0° 354° (N) 2,619 5.8 -19.2°
Reaches altitude 10° 23:32:58 10° 357° (N) 1,728 4.9 -19.6°
Maximum altitude 23:36:44 69° 81° (E) 545 2.0 -20.3°
Enters shadow 23:36:53 68° 101° (E) 549 2.0 -20.3°
